• In Hungary
  • List of Countries
  • For 7 days
  • Water Temperature
  • Satellite Maps
  • Weather Map
  • News
  • Weather Widgets
  • user-avatar
    Login

    Hourly Weather Vanadzor

    Today, 18 November, Saturday

    Time Temperature Precipitation Wind Pressure Humidity
    00:00 +3°C° 0 mm 0 mps 637 mmHg 73%
    01:00 +4°C° 0 mm 1 mps 637 mmHg 74%
    02:00 +4°C° 0 mm 1 mps 637 mmHg 75%
    03:00 +3°C° 0 mm 0 mps 637 mmHg 79%
    04:00 +4°C° 0 mm 1 mps 637 mmHg 79%
    05:00 +4°C° 0 mm 1 mps 637 mmHg 78%
    06:00 +4°C° 0 mm 1 mps 637 mmHg 78%
    07:00 +5°C° 0 mm 1 mps 638 mmHg 73%
    08:00 +6°C° 0 mm 1 mps 638 mmHg 67%
    09:00 +7°C° 0 mm 1 mps 638 mmHg 60%
    10:00 +7°C° 0 mm 2 mps 639 mmHg 56%
    11:00 +8°C° 0 mm 2 mps 639 mmHg 51%
    12:00 +9°C° 0 mm 2 mps 639 mmHg 47%
    13:00 +9°C° 0 mm 2 mps 638 mmHg 47%
    14:00 +9°C° 0 mm 2 mps 638 mmHg 47%
    15:00 +9°C° 0 mm 2 mps 638 mmHg 47%
    16:00 +8°C° 0 mm 2 mps 638 mmHg 52%
    17:00 +7°C° 0 mm 1 mps 637 mmHg 57%
    18:00 +6°C° 0 mm 1 mps 637 mmHg 62%
    19:00 +6°C° 0 mm 1 mps 637 mmHg 59%
    20:00 +6°C° 0 mm 1 mps 637 mmHg 57%
    21:00 +5°C° 0 mm 1 mps 637 mmHg 55%
    22:00 +4°C° 0 mm 2 mps 637 mmHg 55%
    23:00 +4°C° 0 mm 2 mps 637 mmHg 54%

    Tomorrow, 19 November, Sunday

    Time Temperature Precipitation Wind Pressure Humidity
    00:00 +4°C° 0 mm 2 mps 637 mmHg 53%
    01:00 +4°C° 0 mm 2 mps 637 mmHg 53%
    02:00 +4°C° 0 mm 2 mps 636 mmHg 52%
    03:00 +4°C° 0 mm 2 mps 636 mmHg 52%
    04:00 +4°C° 0 mm 2 mps 636 mmHg 52%
    05:00 +3°C° 0 mm 2 mps 636 mmHg 51%
    06:00 +3°C° 0 mm 2 mps 636 mmHg 51%
    07:00 +5°C° 0 mm 2 mps 636 mmHg 47%
    08:00 +6°C° 0 mm 2 mps 636 mmHg 43%
    09:00 +7°C° 0 mm 2 mps 637 mmHg 40%
    10:00 +9°C° 0 mm 2 mps 637 mmHg 37%
    11:00 +10°C° 0 mm 3 mps 637 mmHg 35%
    12:00 +11°C° 0 mm 3 mps 637 mmHg 32%
    13:00 +11°C° 0 mm 3 mps 636 mmHg 33%
    14:00 +11°C° 0 mm 3 mps 636 mmHg 35%
    15:00 +12°C° 0 mm 2 mps 635 mmHg 36%
    16:00 +9°C° 0.1 mm 2 mps 635 mmHg 41%
    17:00 +8°C° 0.1 mm 2 mps 635 mmHg 46%
    18:00 +7°C° 0.1 mm 2 mps 635 mmHg 51%
    19:00 +7°C° 0.4 mm 2 mps 635 mmHg 57%
    20:00 +6°C° 0.4 mm 2 mps 635 mmHg 62%
    21:00 +6°C° 0.4 mm 2 mps 635 mmHg 67%
    22:00 +6°C° 0 mm 2 mps 634 mmHg 70%
    23:00 +5°C° 0 mm 2 mps 634 mmHg 72%

    Day after tomorrow, 20 November, Monday

    Time Temperature Precipitation Wind Pressure Humidity
    00:00 +5°C° 0 mm 2 mps 634 mmHg 75%
    01:00 +4°C° 0 mm 2 mps 634 mmHg 74%
    02:00 +4°C° 0 mm 2 mps 634 mmHg 74%
    03:00 +4°C° 0 mm 2 mps 634 mmHg 73%
    04:00 +4°C° 0 mm 2 mps 634 mmHg 74%
    05:00 +3°C° 0 mm 2 mps 634 mmHg 74%
    06:00 +3°C° 0 mm 2 mps 634 mmHg 75%
    07:00 +3°C° 0 mm 3 mps 634 mmHg 71%
    08:00 +4°C° 0 mm 3 mps 634 mmHg 67%
    09:00 +5°C° 0 mm 3 mps 635 mmHg 64%
    10:00 +8°C° 0 mm 3 mps 634 mmHg 60%
    11:00 +9°C° 0 mm 3 mps 634 mmHg 57%
    12:00 +10°C° 0 mm 3 mps 634 mmHg 54%
    13:00 +10°C° 0.1 mm 3 mps 634 mmHg 54%
    14:00 +10°C° 0.1 mm 3 mps 634 mmHg 54%
    15:00 +10°C° 0.1 mm 3 mps 633 mmHg 55%
    16:00 +8°C° 0 mm 3 mps 633 mmHg 60%
    17:00 +7°C° 0 mm 2 mps 632 mmHg 65%
    18:00 +6°C° 0 mm 2 mps 632 mmHg 70%
    19:00 +5°C° 0 mm 2 mps 632 mmHg 71%
    20:00 +5°C° 0 mm 2 mps 632 mmHg 71%
    21:00 +5°C° 0 mm 2 mps 632 mmHg 72%
    22:00 +5°C° 0 mm 2 mps 632 mmHg 71%
    23:00 +5°C° 0 mm 2 mps 632 mmHg 71%

    21 November, Tuesday

    Time Temperature Precipitation Wind Pressure Humidity
    00:00 +5°C° 0 mm 2 mps 632 mmHg 71%
    01:00 +5°C° 0 mm 2 mps 631 mmHg 72%
    02:00 +5°C° 0 mm 2 mps 631 mmHg 72%
    03:00 +5°C° 0 mm 2 mps 631 mmHg 73%
    04:00 +4°C° 0 mm 2 mps 630 mmHg 73%
    05:00 +4°C° 0 mm 2 mps 630 mmHg 74%
    06:00 +4°C° 0 mm 2 mps 630 mmHg 74%
    07:00 +5°C° 0 mm 2 mps 630 mmHg 70%
    08:00 +6°C° 0 mm 2 mps 630 mmHg 66%
    09:00 +7°C° 0 mm 2 mps 630 mmHg 61%
    10:00 +8°C° 0 mm 2 mps 630 mmHg 58%
    11:00 +9°C° 0 mm 3 mps 630 mmHg 54%
    12:00 +10°C° 0 mm 3 mps 630 mmHg 51%
    13:00 +9°C° 0 mm 3 mps 629 mmHg 51%
    14:00 +9°C° 0 mm 3 mps 629 mmHg 51%
    15:00 +9°C° 0 mm 3 mps 629 mmHg 51%
    16:00 +8°C° 0 mm 2 mps 628 mmHg 57%
    17:00 +7°C° 0 mm 2 mps 628 mmHg 62%
    18:00 +7°C° 0 mm 1 mps 628 mmHg 68%
    19:00 +7°C° 0 mm 1 mps 628 mmHg 70%
    20:00 +6°C° 0 mm 1 mps 628 mmHg 72%
    21:00 +5°C° 0 mm 2 mps 628 mmHg 74%
    22:00 +6°C° 0 mm 1 mps 628 mmHg 76%
    23:00 +6°C° 0 mm 1 mps 627 mmHg 78%

    22 November, Wednesday

    Time Temperature Precipitation Wind Pressure Humidity
    00:00 +6°C° 0 mm 1 mps 627 mmHg 79%
    01:00 +5°C° 0 mm 1 mps 627 mmHg 80%
    02:00 +5°C° 0 mm 1 mps 627 mmHg 80%
    03:00 +5°C° 0 mm 1 mps 626 mmHg 81%
    04:00 +5°C° 0.2 mm 1 mps 626 mmHg 82%
    05:00 +5°C° 0.2 mm 1 mps 626 mmHg 82%
    06:00 +4°C° 0.2 mm 1 mps 626 mmHg 83%
    07:00 +5°C° 1.2 mm 1 mps 627 mmHg 84%
    08:00 +5°C° 1.2 mm 1 mps 627 mmHg 85%
    09:00 +4°C° 1.2 mm 2 mps 627 mmHg 86%
    10:00 +3°C° 1.8 mm 2 mps 627 mmHg 88%
    11:00 +3°C° 1.8 mm 2 mps 627 mmHg 91%
    12:00 +3°C° 1.8 mm 2 mps 627 mmHg 93%
    13:00 +3°C° 0.5 mm 2 mps 628 mmHg 92%
    14:00 +3°C° 0.5 mm 2 mps 628 mmHg 91%
    15:00 +2°C° 0.5 mm 2 mps 628 mmHg 90%
    16:00 +3°C° 0.3 mm 1 mps 628 mmHg 91%
    17:00 +2°C° 0.3 mm 1 mps 628 mmHg 91%
    18:00 +2°C° 0.3 mm 1 mps 629 mmHg 92%
    19:00 +1°C° 0.2 mm 1 mps 629 mmHg 91%
    20:00 +1°C° 0.2 mm 1 mps 629 mmHg 91%
    21:00 +1°C° 0.2 mm 1 mps 629 mmHg 91%
    22:00 +1°C° 0.2 mm 1 mps 630 mmHg 90%
    23:00 0°C° 0.2 mm 1 mps 630 mmHg 89%

    23 November, Thursday

    Time Temperature Precipitation Wind Pressure Humidity
    00:00 0°C° 0.2 mm 1 mps 630 mmHg 89%
    01:00 -1°C° 0.1 mm 1 mps 630 mmHg 88%
    02:00 -1°C° 0.1 mm 1 mps 630 mmHg 87%
    03:00 -3°C° 0.1 mm 2 mps 630 mmHg 86%
    04:00 -4°C° 0 mm 2 mps 630 mmHg 84%
    05:00 -4°C° 0 mm 2 mps 631 mmHg 83%
    06:00 -4°C° 0 mm 2 mps 631 mmHg 82%
    07:00 -3°C° 0.1 mm 2 mps 631 mmHg 82%
    08:00 -3°C° 0.1 mm 2 mps 632 mmHg 82%
    09:00 -2°C° 0.1 mm 2 mps 633 mmHg 82%
    10:00 -2°C° 0.1 mm 2 mps 633 mmHg 78%
    11:00 -1°C° 0.1 mm 2 mps 633 mmHg 75%
    12:00 +1°C° 0.1 mm 2 mps 633 mmHg 72%
    13:00 +1°C° 0 mm 2 mps 633 mmHg 72%
    14:00 -1°C° 0 mm 2 mps 633 mmHg 72%
    15:00 +1°C° 0 mm 1 mps 633 mmHg 72%
    16:00 0°C° 0 mm 1 mps 633 mmHg 73%
    17:00 -1°C° 0 mm 1 mps 633 mmHg 74%
    18:00 -2°C° 0 mm 1 mps 633 mmHg 75%
    19:00 -2°C° 0 mm 1 mps 634 mmHg 75%
    20:00 -3°C° 0 mm 1 mps 634 mmHg 75%
    21:00 -3°C° 0 mm 1 mps 635 mmHg 75%
    22:00 -4°C° 0 mm 1 mps 635 mmHg 75%
    23:00 -6°C° 0 mm 2 mps 635 mmHg 74%
    Show more